{"data":{"norad_id":68420,"intl_designator":"2026-067E","name":"ERMIS-2","alt_names":[],"object_type":"PAYLOAD","status":"ACTIVE","operator":null,"country":"GREC","launch_date":"2026-03-30","launch_site_code":"AFWTR","launch_vehicle":null,"mission":null,"orbit_class":"UNKNOWN","rcs_meters":null,"size_class":null,"mass_kg":null,"dimensions":null,"purposes":[],"wikipedia_slug":null,"has_3d_model":false,"image_url":null,"decayed_at":null,"tle_current":{"epoch":"2026-09-20T02:46:48.518976Z","epoch_age_seconds":102065,"freshness":"FRESH","line1":"1 68420U 26067E   26263.11583934  .00006956  00000+0  31430-3 0  9993","line2":"2 68420  97.4569 220.5564 0001037  72.9902 287.1448 15.21267388 26371","mean_motion":15.21267388,"eccentricity":0.0001037,"inclination_deg":97.4569,"raan_deg":220.5564,"arg_perigee_deg":72.9902,"mean_anomaly_deg":287.1448,"bstar":0.0003143,"rev_number":2637,"period_min":94.657915587947,"perigee_km":501.30318879851,"apogee_km":502.73013266775,"semimajor_km":6880.1536607331,"source":"CELESTRAK","updated_at":"2026-09-20T09:00:24.198864Z"}}}